Date,TemperatureHighF,TemperatureAvgF,TemperatureLowF,DewpointHighF,DewpointAvgF,DewpointLowF,HumidityHigh,HumidityAvg,HumidityLow,PressureMaxIn,PressureMinIn,WindSpeedMaxMPH,WindSpeedAvgMPH,GustSpeedMaxMPH,PrecipitationSumIn
2013-9-1,96.3,80.2,70.1,65.1,62.6,52.3,80,58,24,29.82,29.71,13,1,13,0.00
2013-9-2,97.3,79.6,68.3,65.2,60.2,54.0,76,54,25,29.81,29.69,26,1,26,0.01
2013-9-3,99.0,84.3,72.7,61.4,56.8,50.1,65,42,23,29.79,29.70,20,1,20,0.00
2013-9-4,98.5,84.0,74.4,64.6,56.2,51.5,54,40,24,29.80,29.72,30,1,30,0.00
2013-9-5,102.0,84.1,74.7,63.8,56.9,46.8,66,42,20,29.78,29.71,41,2,41,0.35
2013-9-6,99.3,85.7,74.9,61.8,54.4,47.4,57,37,19,29.78,29.68,7,0,0,0.00
2013-9-7,95.6,80.6,71.8,68.9,58.2,52.3,82,49,25,29.76,29.70,16,1,0,0.48
2013-9-8,95.9,81.0,70.4,62.4,53.2,40.9,68,42,17,29.75,29.62,3,0,0,0.00
2013-9-9,93.2,78.2,69.4,57.2,49.8,43.4,60,39,20,29.69,29.59,7,0,4,0.00
2013-9-10,88.6,73.5,61.5,54.4,49.9,41.2,70,46,20,29.82,29.68,16,1,16,0.00
2013-9-11,88.4,72.3,58.1,52.0,45.0,29.7,70,42,14,29.87,29.81,12,1,12,0.00
2013-9-12,95.9,77.5,63.2,47.0,37.8,23.0,40,26,9,29.84,29.71,9,0,9,0.00
2013-9-13,97.1,80.9,68.4,45.4,38.0,23.7,35,23,8,29.75,29.56,17,1,17,0.00
2013-9-14,101.2,83.7,71.6,52.0,41.7,36.0,38,24,11,29.61,29.50,9,0,9,0.00
2013-9-15,101.2,83.9,72.8,51.2,40.8,34.3,36,23,13,29.67,29.57,18,1,18,0.00
2013-9-16,100.2,83.1,71.3,52.2,42.5,35.2,44,25,12,29.71,29.60,22,1,22,0.00
2013-9-17,91.2,76.4,63.7,50.3,42.6,32.8,52,32,14,29.68,29.58,13,1,13,0.00
2013-9-18,86.3,68.5,53.8,53.3,43.0,31.0,85,43,15,29.70,29.62,8,0,8,0.00
2013-9-19,91.2,72.4,58.9,57.8,49.5,41.1,77,48,22,29.72,29.63,9,0,9,0.00
2013-9-20,82.4,65.9,54.7,58.9,53.7,44.4,89,68,28,29.78,29.70,9,0,9,0.00
2013-9-21,80.9,63.7,52.9,55.1,51.8,44.0,86,68,30,29.80,29.68,5,0,13,0.00
2013-9-22,78.8,66.0,54.2,53.4,47.4,39.1,83,55,26,29.77,29.68,8,0,8,0.00
2013-9-23,93.4,72.9,56.2,48.2,39.0,31.0,72,34,11,29.82,29.73,10,0,10,0.00
2013-9-24,92.1,74.5,62.7,46.0,37.2,30.6,40,27,12,29.83,29.72,15,1,15,0.00
2013-9-25,79.0,65.4,55.3,50.3,39.5,28.1,79,41,21,29.76,29.59,20,3,20,0.00
2013-9-26,71.6,59.7,53.3,48.0,44.6,32.6,74,59,27,29.82,29.64,10,0,10,0.00
2013-9-27,81.6,64.4,49.4,42.9,29.4,18.5,68,32,10,29.94,29.81,9,0,9,0.00
2013-9-28,88.0,71.0,57.3,28.4,20.5,14.4,23,15,8,29.97,29.86,12,0,12,0.00
2013-9-29,90.5,72.6,59.0,34.1,24.4,18.0,26,17,8,29.97,29.86,10,1,10,0.00
2013-9-30,90.1,72.5,59.3,36.4,28.6,21.3,30,21,10,29.91,29.76,10,1,10,0.00